LILACSAT-1 (42725 NORAD) Tracking and Keplerian Element Data

This shows tracking and keplerian element data for the satellite.

Feedback or suggestion? Click here.




ElementValue
Catalog42725
NameLILACSAT-1
Epoch Orbit6536
Epoch Day198.91652484
Epoch Year2018
RAAN201.2125
Inclination51.6345
Eccentricity0.0004972
Argument of Perigee2.6071
Mean Anonmoly357.4952
Mean Motion15.70729138
Decay Rate0.00021631
L11 42725U 98067ME 18198.91652484 .00021631 00000-0 17506-3 0 9991
L22 42725 51.6345 201.2125 0004972 2.6071 357.4952 15.70729138 65365

Live tracking and technical data element details for LILACSAT-1 (NORAD 42725). LILACSAT-1 can be tracked NOW for your location showing map with azimuth and elevation plus other details from your city location.

Track the satellite on the map from your city or location and see movement details for azimuth, elevation, latitude, longitude, range, height, and movement on the map or in text.







IsCatalogInMostPopularTable: catalog: 42725, numindb: 118
Update: records affected: 1



GetName: 42725 LILACSAT-1

Hit Count: updated at: Thu, 19 Jul 2018 03:52:02 GMT